Regional Weather Roundup
Issued by NWS Goodland, KS

Home | Current Version | Previous Version | Text Only | Print | Product List | Glossary On
Versions: 1 2 3 4 5 6 7 8 9 10 11 12 13 14 15 16 17 18 19 20 21 22 23 24 25 26 27 28 29 30 31 32 33 34 35 36 37 38 39 40 41 42 43 44 45 46 47 48 49 50
000
ASUS43 KGLD 311208
RWRGLD

GOODLAND FORECAST AREA HOURLY WEATHER ROUNDUP
NATIONAL WEATHER SERVICE GOODLAND KS
600 AM MDT TUE MAY 31 2016

...OFFICIAL OBSERVATIONS...

CITY           SKY/WX    TMP DP  RH WIND       PRES   REMARKS
GOODLAND KS    CLOUDY    50  48  93 N8        30.07R
HILL CITY KS   CLOUDY    58  55  90 N13       30.00R
IMPERIAL NEB   PTCLDY    52  47  83 N5        30.08R
MCCOOK NEB     CLOUDY    53  49  86 N7        30.04R
AKRON CO       CLOUDY    48  46  93 NW7       30.15R
BURLINGTON CO  CLOUDY    51  48  89 N8        30.09R
LIMON CO       CLOUDY    50  47  89 N9        30.17R
$$

...UNOFFICIAL OBSERVATIONS...

CITY           SKY/WX    TMP DP  RH WIND       PRES   REMARKS
GOVE KS          N/A    N/A N/A N/A MISG        N/A
LENORA KS        N/A     56  32  40 MISG        N/A
SHARON SPRINGS   N/A     50  48  92 CALM        N/A
TRIBUNE KS     PTCLDY    54  52  94 N8        30.06S
KIT CARSON CO    N/A     50  46  84 MISG        N/A
YUMA CO          N/A     47  45  93 CALM        N/A
$$




USA.gov is the U.S. government's official web portal to all federal, state and local government web resources and services.